When you browse on this site, cookies collect data to enhance your experience and personalize the content and advertising you see.
Visit our Privacy Policy to learn more. By continuing to use the site, you agree to this use of cookies and data.

Hourly Weather Kingston upon Thames

Today, 20 September, Sunday

Time Temperature Precipitation Wind Pressure Humidity
00:00 +15°C° 0 mm 4 mps 761 mmHg 80%
01:00 +15°C° 0 mm 4 mps 761 mmHg 82%
02:00 +15°C° 0 mm 5 mps 760 mmHg 84%
03:00 +14°C° 0 mm 5 mps 760 mmHg 86%
04:00 +14°C° 0 mm 5 mps 760 mmHg 86%
05:00 +14°C° 0 mm 5 mps 761 mmHg 86%
06:00 +14°C° 0 mm 4 mps 761 mmHg 91%
07:00 +15°C° 0 mm 5 mps 761 mmHg 85%
08:00 +16°C° 0 mm 5 mps 761 mmHg 78%
09:00 +19°C° 0 mm 5 mps 761 mmHg 72%
10:00 +20°C° 0 mm 5 mps 761 mmHg 67%
11:00 +21°C° 0 mm 5 mps 762 mmHg 62%
12:00 +23°C° 0 mm 5 mps 762 mmHg 56%
13:00 +23°C° 0 mm 5 mps 761 mmHg 55%
14:00 +23°C° 0 mm 5 mps 761 mmHg 53%
15:00 +23°C° 0 mm 4 mps 761 mmHg 52%
16:00 +22°C° 0 mm 4 mps 761 mmHg 55%
17:00 +21°C° 0 mm 4 mps 761 mmHg 58%
18:00 +19°C° 0 mm 4 mps 761 mmHg 61%
19:00 +18°C° 0 mm 3 mps 761 mmHg 65%
20:00 +18°C° 0 mm 3 mps 762 mmHg 68%
21:00 +17°C° 0 mm 3 mps 762 mmHg 71%
22:00 +16°C° 0 mm 3 mps 762 mmHg 75%
23:00 +16°C° 0 mm 2 mps 762 mmHg 79%

Tomorrow, 21 September, Monday

Time Temperature Precipitation Wind Pressure Humidity
00:00 +15°C° 0 mm 2 mps 762 mmHg 84%
01:00 +15°C° 0 mm 2 mps 762 mmHg 86%
02:00 +14°C° 0 mm 2 mps 761 mmHg 88%
03:00 +14°C° 0 mm 2 mps 761 mmHg 89%
04:00 +14°C° 0 mm 2 mps 761 mmHg 90%
05:00 +14°C° 0 mm 2 mps 761 mmHg 90%
06:00 +13°C° 0 mm 1 mps 761 mmHg 90%
07:00 +15°C° 0 mm 2 mps 761 mmHg 84%
08:00 +17°C° 0 mm 2 mps 761 mmHg 77%
09:00 +18°C° 0 mm 2 mps 761 mmHg 71%
10:00 +20°C° 0 mm 2 mps 761 mmHg 62%
11:00 +22°C° 0 mm 1 mps 761 mmHg 54%
12:00 +24°C° 0 mm 1 mps 761 mmHg 45%
13:00 +24°C° 0 mm 1 mps 760 mmHg 43%
14:00 +25°C° 0 mm 1 mps 760 mmHg 41%
15:00 +25°C° 0 mm 1 mps 760 mmHg 39%
16:00 +24°C° 0 mm 1 mps 759 mmHg 44%
17:00 +22°C° 0 mm 1 mps 759 mmHg 49%
18:00 +21°C° 0 mm 1 mps 759 mmHg 54%
19:00 +18°C° 0 mm 0 mps 759 mmHg 57%
20:00 +18°C° 0 mm 0 mps 759 mmHg 60%
21:00 +17°C° 0 mm 0 mps 759 mmHg 64%
22:00 +17°C° 0 mm 0 mps 759 mmHg 65%
23:00 +16°C° 0 mm 0 mps 758 mmHg 65%

Day after tomorrow, 22 September, Tuesday

Time Temperature Precipitation Wind Pressure Humidity
00:00 +16°C° 0 mm 0 mps 758 mmHg 66%
01:00 +16°C° 0 mm 0 mps 758 mmHg 67%
02:00 +16°C° 0 mm 1 mps 757 mmHg 68%
03:00 +16°C° 0 mm 1 mps 757 mmHg 69%
04:00 +16°C° 0 mm 1 mps 757 mmHg 71%
05:00 +16°C° 0 mm 1 mps 756 mmHg 72%
06:00 +15°C° 0 mm 1 mps 756 mmHg 73%
07:00 +18°C° 0 mm 1 mps 756 mmHg 69%
08:00 +19°C° 0 mm 2 mps 755 mmHg 65%
09:00 +20°C° 0 mm 2 mps 755 mmHg 60%
10:00 +22°C° 0 mm 3 mps 755 mmHg 56%
11:00 +24°C° 0 mm 3 mps 754 mmHg 53%
12:00 +25°C° 0 mm 4 mps 754 mmHg 49%
13:00 +25°C° 0 mm 4 mps 754 mmHg 50%
14:00 +25°C° 0 mm 4 mps 753 mmHg 50%
15:00 +25°C° 0 mm 5 mps 752 mmHg 51%
16:00 +22°C° 0 mm 4 mps 752 mmHg 58%
17:00 +21°C° 0 mm 4 mps 752 mmHg 65%
18:00 +20°C° 0 mm 4 mps 752 mmHg 72%
19:00 +19°C° 0 mm 4 mps 752 mmHg 78%
20:00 +18°C° 0 mm 4 mps 752 mmHg 83%
21:00 +17°C° 0 mm 4 mps 752 mmHg 88%
22:00 +16°C° 0 mm 3 mps 751 mmHg 89%
23:00 +16°C° 0 mm 3 mps 751 mmHg 90%

23 September, Wednesday

Time Temperature Precipitation Wind Pressure Humidity
00:00 +16°C° 0 mm 3 mps 751 mmHg 91%
01:00 +16°C° 0 mm 3 mps 750 mmHg 91%
02:00 +16°C° 0 mm 3 mps 750 mmHg 91%
03:00 +16°C° 0 mm 3 mps 749 mmHg 90%
04:00 +15°C° 0.2 mm 4 mps 749 mmHg 90%
05:00 +17°C° 0.2 mm 4 mps 749 mmHg 89%
06:00 +17°C° 0.2 mm 4 mps 749 mmHg 88%
07:00 +17°C° 0.1 mm 4 mps 749 mmHg 84%
08:00 +17°C° 0.1 mm 5 mps 749 mmHg 79%
09:00 +17°C° 0.1 mm 5 mps 749 mmHg 75%
10:00 +17°C° 0.3 mm 5 mps 749 mmHg 75%
11:00 +17°C° 0.3 mm 5 mps 749 mmHg 75%
12:00 +18°C° 0.3 mm 4 mps 748 mmHg 76%
13:00 +18°C° 0.4 mm 4 mps 748 mmHg 74%
14:00 +17°C° 0.4 mm 5 mps 748 mmHg 73%
15:00 +17°C° 0.4 mm 5 mps 748 mmHg 71%
16:00 +17°C° 0.5 mm 4 mps 748 mmHg 75%
17:00 +16°C° 0.5 mm 3 mps 748 mmHg 80%
18:00 +13°C° 0.5 mm 3 mps 748 mmHg 84%
19:00 +12°C° 0.1 mm 4 mps 748 mmHg 83%
20:00 +10°C° 0.1 mm 5 mps 749 mmHg 81%
21:00 +9°C° 0.1 mm 6 mps 749 mmHg 80%
22:00 +9°C° 0 mm 5 mps 750 mmHg 80%
23:00 +8°C° 0 mm 5 mps 750 mmHg 79%

24 September, Thursday

Time Temperature Precipitation Wind Pressure Humidity
00:00 +8°C° 0 mm 4 mps 750 mmHg 79%
01:00 +7°C° 0 mm 4 mps 750 mmHg 79%
02:00 +7°C° 0 mm 4 mps 750 mmHg 80%
03:00 +8°C° 0 mm 3 mps 750 mmHg 80%
04:00 +8°C° 0 mm 3 mps 750 mmHg 80%
05:00 +8°C° 0 mm 3 mps 750 mmHg 80%
06:00 +8°C° 0 mm 3 mps 750 mmHg 80%
07:00 +8°C° 1 mm 4 mps 749 mmHg 80%
08:00 +10°C° 1 mm 6 mps 748 mmHg 80%
09:00 +11°C° 1 mm 7 mps 748 mmHg 80%
10:00 +11°C° 1.5 mm 7 mps 748 mmHg 76%
11:00 +12°C° 1.5 mm 8 mps 747 mmHg 72%
12:00 +12°C° 1.5 mm 8 mps 747 mmHg 68%
13:00 +12°C° 0.1 mm 8 mps 746 mmHg 64%
14:00 +12°C° 0.1 mm 9 mps 746 mmHg 59%
15:00 +13°C° 0.1 mm 9 mps 746 mmHg 54%
16:00 +12°C° 0.1 mm 8 mps 745 mmHg 58%
17:00 +11°C° 0.1 mm 8 mps 744 mmHg 62%
18:00 +9°C° 0.1 mm 7 mps 744 mmHg 66%
19:00 +9°C° 0.1 mm 7 mps 744 mmHg 68%
20:00 +9°C° 0.1 mm 8 mps 744 mmHg 70%
21:00 +9°C° 0.1 mm 8 mps 744 mmHg 72%
22:00 +8°C° 0 mm 7 mps 744 mmHg 74%
23:00 +8°C° 0 mm 7 mps 744 mmHg 76%

25 September, Friday

Time Temperature Precipitation Wind Pressure Humidity
00:00 +6°C° 0 mm 7 mps 744 mmHg 78%
01:00 +6°C° 0 mm 7 mps 744 mmHg 78%
02:00 +6°C° 0 mm 7 mps 744 mmHg 78%
03:00 +6°C° 0 mm 7 mps 744 mmHg 78%
04:00 +6°C° 0.2 mm 7 mps 745 mmHg 80%
05:00 +6°C° 0.2 mm 7 mps 745 mmHg 81%
06:00 +8°C° 0.2 mm 7 mps 745 mmHg 82%
07:00 +8°C° 0.1 mm 7 mps 746 mmHg 80%
08:00 +7°C° 0.1 mm 8 mps 746 mmHg 78%
09:00 +7°C° 0.1 mm 9 mps 747 mmHg 75%
10:00 +7°C° 0.2 mm 9 mps 748 mmHg 75%
11:00 +7°C° 0.2 mm 9 mps 748 mmHg 74%
12:00 +8°C° 0.2 mm 9 mps 749 mmHg 74%
13:00 +7°C° 0.2 mm 9 mps 749 mmHg 75%
14:00 +7°C° 0.2 mm 9 mps 750 mmHg 76%
15:00 +7°C° 0.2 mm 9 mps 751 mmHg 78%
16:00 +7°C° 0 mm 8 mps 751 mmHg 76%
17:00 +8°C° 0 mm 7 mps 752 mmHg 74%
18:00 +8°C° 0 mm 6 mps 752 mmHg 73%
19:00 +8°C° 0 mm 6 mps 753 mmHg 72%
20:00 +8°C° 0 mm 6 mps 754 mmHg 71%
21:00 +7°C° 0 mm 6 mps 755 mmHg 71%
22:00 +7°C° 0 mm 6 mps 755 mmHg 71%
23:00 +7°C° 0 mm 6 mps 755 mmHg 72%
Show more